Date String (YYYY-MM-DD hh:mm:ss) UTC,Instrument flags,absolute air pressure of the measurement (hPa),sample flow rate (lpm),inlet stack bypass flow (lpm),air temperature of the measurement (°C),ambient temperature measured by the external sensor (°C),aerosol sample conditioner tube jacket temperature (°C),OPC LED temperature (°C),internal box temperature (°C),relative humidity of the measurement (%),span deviation,mass concentration of particles derived from Lorenz-Mie calculation of OPC scattering (μg/m³),mass concentration of particles derived from Lorenz-Mie calculation of OPC scattering (μg/m³),mass concentration of particles derived from Lorenz-Mie calculation of OPC scattering (μg/m³)
DateTimeUTC,F1_M11,P_M11,Q1_M11,Q2_M11,T1_M11,T2_M11,T3_M11,T4_M11,T5_M11,U1_M11,ZSPAN_M11,X0_M11,X2_M11,X1_M11
2023-07-12 11:00:00,SystemResetWarning,0831.1,4.99,000.00,029.6,028.4,000.0,038.1,031.3,13.8,0000.0,0011.56,0003.78,0003.25
2023-07-12 11:01:00,SystemResetWarning,0831.1,4.99,000.00,029.7,028.5,000.0,038.1,031.3,13.6,0000.0,0009.97,0003.78,0003.26
2023-07-12 11:02:00,SystemResetWarning,0831.1,5.02,000.00,029.7,028.5,000.0,038.1,031.3,13.7,0000.0,0009.54,0003.75,0003.25
2023-07-12 11:03:00,SystemResetWarning,0831.1,5.00,000.00,029.7,028.5,000.0,038.2,031.3,13.8,0000.0,0008.79,0003.70,0003.25
2023-07-12 11:04:00,SystemResetWarning,0831.1,4.99,000.00,029.8,028.6,000.0,038.2,031.4,13.6,0000.0,0008.75,0003.68,0003.25
2023-07-12 11:05:00,SystemResetWarning,0831.1,4.99,000.00,029.8,028.6,000.0,038.2,031.4,13.5,0000.0,0008.76,0003.72,0003.25
2023-07-12 11:06:00,SystemResetWarning,0831.0,5.00,000.00,029.8,026.9,000.0,038.1,031.2,13.4,0000.0,0008.50,0003.73,0003.25
2023-07-12 11:07:00,SystemResetWarning,0831.0,5.00,000.00,029.7,025.5,000.0,038.0,031.0,13.5,0000.0,0008.39,0003.73,0003.23
2023-07-12 11:08:00,SystemResetWarning,0831.0,5.02,000.00,029.6,025.5,000.0,037.9,030.7,13.5,0000.0,0007.71,0003.74,0003.23
2023-07-12 11:09:00,SystemResetWarning,0830.9,5.00,000.00,029.5,025.8,000.0,038.0,030.6,13.4,0000.0,0007.47,0003.74,0003.23
2023-07-12 11:10:00,SystemResetWarning,0830.9,5.00,000.00,029.4,026.2,000.0,038.0,030.7,13.5,0000.0,0007.65,0003.75,0003.23
2023-07-12 11:11:00,SystemResetWarning,0831.1,5.00,000.00,029.4,026.6,000.0,038.0,030.8,13.8,0000.0,0008.66,0003.76,0003.23
2023-07-12 11:12:00,SystemResetWarning,0831.1,4.98,000.00,029.4,026.9,000.0,038.0,030.9,13.6,0000.0,0008.83,0003.78,0003.24
2023-07-12 11:13:00,SystemResetWarning,0831.1,5.01,000.00,029.4,027.2,000.0,038.0,030.9,13.5,0000.0,0008.78,0003.83,0003.24
2023-07-12 11:14:00,SystemResetWarning,0831.2,5.01,000.00,029.4,027.4,000.0,038.0,031.0,13.5,0000.0,0008.98,0003.86,0003.25
2023-07-12 11:15:00,SystemResetWarning,0831.2,4.99,000.00,029.4,027.6,000.0,038.0,031.0,13.3,0000.0,0009.10,0003.92,0003.26
2023-07-12 11:16:00,SystemResetWarning,0831.1,4.99,000.00,029.5,027.8,000.0,038.0,031.0,13.4,0000.0,0009.80,0003.91,0003.25
2023-07-12 11:17:00,SystemResetWarning,0831.2,5.02,000.00,029.5,027.9,000.0,038.0,031.1,13.5,0000.0,0010.29,0003.92,0003.25
2023-07-12 11:18:00,SystemResetWarning,0831.1,5.00,000.00,029.5,028.1,000.0,038.0,031.1,13.3,0000.0,0010.28,0003.91,0003.25
2023-07-12 11:19:00,SystemResetWarning,0831.1,4.99,000.00,029.5,028.2,000.0,038.0,031.1,13.4,0000.0,0010.57,0003.93,0003.25
2023-07-12 11:20:00,SystemResetWarning,0831.1,4.99,000.00,029.6,028.2,000.0,038.0,031.1,13.4,0000.0,0010.96,0003.91,0003.25
2023-07-12 11:21:00,SystemResetWarning,0831.1,5.00,000.00,029.6,028.3,000.0,038.1,031.2,13.3,0000.0,0011.26,0003.91,0003.25
2023-07-12 11:22:00,SystemResetWarning,0831.1,5.01,000.00,029.6,028.4,000.0,038.1,031.2,13.4,0000.0,0010.37,0003.87,0003.24
2023-07-12 11:23:00,SystemResetWarning,0831.1,5.00,000.00,029.6,028.4,000.0,038.1,031.3,13.4,0000.0,0010.16,0003.84,0003.23
2023-07-12 11:24:00,SystemResetWarning,0831.1,4.99,000.00,029.7,028.5,000.0,038.1,031.3,13.2,0000.0,0009.71,0003.80,0003.23
2023-07-12 11:25:00,SystemResetWarning,0831.1,4.99,000.00,029.7,028.5,000.0,038.1,031.3,13.3,0000.0,0009.78,0003.79,0003.23
2023-07-12 11:26:00,SystemResetWarning,0831.1,5.00,000.00,029.7,028.6,000.0,038.2,031.3,13.3,0000.0,0010.12,0003.78,0003.23
2023-07-12 11:27:00,SystemResetWarning,0831.1,5.01,000.00,029.8,028.6,000.0,038.2,031.4,13.3,0000.0,0010.06,0003.77,0003.23
2023-07-12 11:28:00,SystemResetWarning,0831.2,5.02,000.00,029.8,028.5,000.0,038.2,031.4,13.3,0000.0,0009.25,0003.76,0003.24
2023-07-12 11:29:00,SystemResetWarning,0831.1,4.97,000.00,029.8,026.7,000.0,038.1,031.2,13.3,0000.0,0009.28,0003.76,0003.24
2023-07-12 11:30:00,SystemResetWarning,0831.1,5.02,000.00,029.7,025.5,000.0,038.0,030.9,13.3,0000.0,0009.46,0003.80,0003.25
2023-07-12 11:31:00,SystemResetWarning,0831.1,5.01,000.00,029.5,025.5,000.0,037.9,030.7,13.4,0000.0,0009.76,0003.82,0003.25
2023-07-12 11:32:00,SystemResetWarning,0831.1,5.00,000.00,029.5,025.8,000.0,038.0,030.6,13.5,0000.0,0010.02,0003.87,0003.27
2023-07-12 11:33:00,SystemResetWarning,0831.1,5.00,000.00,029.4,026.2,000.0,038.0,030.7,13.5,0000.0,0009.74,0003.90,0003.27
2023-07-12 11:34:00,SystemResetWarning,0831.1,5.01,000.00,029.4,026.6,000.0,038.0,030.8,13.5,0000.0,0009.69,0003.91,0003.27
2023-07-12 11:35:00,SystemResetWarning,0831.2,5.00,000.00,029.4,026.9,000.0,038.0,030.8,13.5,0000.0,0009.81,0003.96,0003.27
2023-07-12 11:36:00,SystemResetWarning,0831.1,5.00,000.00,029.4,027.2,000.0,038.0,030.9,13.6,0000.0,0009.49,0003.96,0003.27
2023-07-12 11:37:00,SystemResetWarning,0831.1,5.00,000.00,029.4,027.4,000.0,038.0,030.9,13.6,0000.0,0009.20,0003.96,0003.27
2023-07-12 11:38:00,SystemResetWarning,0831.1,4.99,000.00,029.4,027.6,000.0,038.0,031.0,13.6,0000.0,0009.15,0003.98,0003.27
2023-07-12 11:39:00,SystemResetWarning,0831.1,5.00,000.00,029.5,027.8,000.0,038.0,031.0,13.6,0000.0,0008.85,0003.98,0003.27
2023-07-12 11:40:00,SystemResetWarning,0831.1,5.01,000.00,029.5,028.0,000.0,038.0,031.1,13.6,0000.0,0008.74,0003.98,0003.28
2023-07-12 11:41:00,SystemResetWarning,0831.1,5.00,000.00,029.5,028.1,000.0,038.0,031.1,13.6,0000.0,0008.68,0003.99,0003.28
2023-07-12 11:42:00,SystemResetWarning,0831.1,5.00,000.00,029.5,028.2,000.0,038.0,031.1,13.6,0000.0,0007.80,0003.93,0003.29
2023-07-12 11:43:00,SystemResetWarning,0831.1,5.00,000.00,029.6,028.2,000.0,038.0,031.1,13.6,0000.0,0007.24,0003.90,0003.28
2023-07-12 11:44:00,SystemResetWarning,0831.1,5.00,000.00,029.6,028.3,000.0,038.0,031.2,13.6,0000.0,0007.45,0003.89,0003.29
2023-07-12 11:45:00,SystemResetWarning,0831.1,5.00,000.00,029.6,028.4,000.0,038.1,031.2,13.5,0000.0,0007.78,0003.92,0003.30
2023-07-12 11:46:00,SystemResetWarning,0831.2,4.99,000.00,029.6,028.4,000.0,038.1,031.2,13.6,0000.0,0008.02,0003.92,0003.32
2023-07-12 11:47:00,SystemResetWarning,0831.2,5.00,000.00,029.7,028.5,000.0,038.1,031.3,13.5,0000.0,0008.16,0003.92,0003.32
2023-07-12 11:48:00,SystemResetWarning,0831.1,5.00,000.00,029.7,028.5,000.0,038.1,031.3,13.6,0000.0,0008.06,0003.92,0003.32
2023-07-12 11:49:00,SystemResetWarning,0831.2,5.00,000.00,029.7,028.5,000.0,038.1,031.3,13.5,0000.0,0008.04,0003.91,0003.32
2023-07-12 11:50:00,SystemResetWarning,0831.1,5.00,000.00,029.7,028.6,000.0,038.2,031.3,13.5,0000.0,0008.27,0003.91,0003.32
2023-07-12 11:51:00,SystemResetWarning,0831.1,5.00,000.00,029.8,028.6,000.0,038.2,031.4,13.4,0000.0,0008.40,0003.93,0003.31
2023-07-12 11:52:00,SystemResetWarning,0831.1,4.99,000.00,029.8,027.9,000.0,038.1,031.3,13.5,0000.0,0008.53,0003.92,0003.30
2023-07-12 11:53:00,SystemResetWarning,0831.1,4.99,000.00,029.7,025.9,000.0,038.0,031.0,13.5,0000.0,0009.28,0003.96,0003.30
2023-07-12 11:54:00,SystemResetWarning,0831.1,5.02,000.00,029.6,025.5,000.0,037.9,030.8,13.6,0000.0,0009.71,0003.99,0003.29
2023-07-12 11:55:00,SystemResetWarning,0831.1,4.99,000.00,029.5,025.8,000.0,037.9,030.7,13.7,0000.0,0009.55,0004.01,0003.29
2023-07-12 11:56:00,SystemResetWarning,0831.2,5.00,000.00,029.4,026.1,000.0,038.0,030.7,13.8,0000.0,0009.28,0003.98,0003.28
2023-07-12 11:57:00,SystemResetWarning,0831.2,5.00,000.00,029.4,026.5,000.0,038.0,030.8,13.8,0000.0,0009.25,0003.96,0003.27
2023-07-12 11:58:00,SystemResetWarning,0831.2,4.99,000.00,029.4,026.9,000.0,038.0,030.8,13.9,0000.0,0009.22,0003.96,0003.28
2023-07-12 11:59:00,SystemResetWarning,0831.3,4.99,000.00,029.4,027.1,000.0,038.0,030.9,14.0,0000.0,0009.50,0003.95,0003.28
